• en France
  • Liste des pays
  • À 7 jours
  • Température de l'eau
  • Carte satellitaire
  • Carte météo
  • Widgets météo
  • user-avatar
    Se connecter

    Météo par heure à Novosergeevka

    Ce jour, 21 Août, Mardi

    Heure Température Précipitation Vent Pression Humidité
    00:00 +19°C° 0 mm 3 m/s 744 mmHg 61%
    01:00 +19°C° 0 mm 3 m/s 744 mmHg 61%
    02:00 +18°C° 0 mm 3 m/s 744 mmHg 60%
    03:00 +18°C° 0 mm 2 m/s 744 mmHg 64%
    04:00 +18°C° 0 mm 2 m/s 743 mmHg 65%
    05:00 +18°C° 0 mm 2 m/s 743 mmHg 65%
    06:00 +18°C° 0 mm 3 m/s 743 mmHg 66%
    07:00 +19°C° 0 mm 3 m/s 743 mmHg 62%
    08:00 +21°C° 0 mm 4 m/s 743 mmHg 58%
    09:00 +23°C° 0 mm 4 m/s 743 mmHg 54%
    10:00 +26°C° 0 mm 5 m/s 743 mmHg 49%
    11:00 +27°C° 0 mm 5 m/s 742 mmHg 45%
    12:00 +29°C° 0 mm 6 m/s 742 mmHg 40%
    13:00 +29°C° 0 mm 6 m/s 742 mmHg 40%
    14:00 +29°C° 0 mm 7 m/s 741 mmHg 40%
    15:00 +30°C° 0 mm 7 m/s 741 mmHg 40%
    16:00 +29°C° 0,1 mm 6 m/s 740 mmHg 45%
    17:00 +28°C° 0,1 mm 5 m/s 740 mmHg 50%
    18:00 +27°C° 0,1 mm 4 m/s 740 mmHg 55%
    19:00 +26°C° 0,8 mm 4 m/s 740 mmHg 63%
    20:00 +23°C° 0,8 mm 4 m/s 740 mmHg 71%
    21:00 +21°C° 0,8 mm 4 m/s 740 mmHg 79%
    22:00 +20°C° 0,2 mm 4 m/s 740 mmHg 83%
    23:00 +19°C° 0,2 mm 3 m/s 740 mmHg 87%

    Demain, 22 Août, Mercredi

    Heure Température Précipitation Vent Pression Humidité
    00:00 +18°C° 0,2 mm 3 m/s 740 mmHg 91%
    01:00 +18°C° 0 mm 3 m/s 741 mmHg 92%
    02:00 +17°C° 0 mm 3 m/s 741 mmHg 92%
    03:00 +16°C° 0 mm 3 m/s 741 mmHg 93%
    04:00 +16°C° 0 mm 3 m/s 742 mmHg 91%
    05:00 +14°C° 0 mm 3 m/s 742 mmHg 89%
    06:00 +15°C° 0 mm 2 m/s 742 mmHg 87%
    07:00 +16°C° 0 mm 3 m/s 743 mmHg 79%
    08:00 +17°C° 0 mm 3 m/s 743 mmHg 72%
    09:00 +18°C° 0 mm 4 m/s 744 mmHg 64%
    10:00 +19°C° 0 mm 4 m/s 744 mmHg 59%
    11:00 +20°C° 0 mm 5 m/s 745 mmHg 54%
    12:00 +21°C° 0 mm 5 m/s 745 mmHg 49%
    13:00 +21°C° 0 mm 5 m/s 745 mmHg 47%
    14:00 +21°C° 0 mm 5 m/s 745 mmHg 45%
    15:00 +22°C° 0 mm 5 m/s 745 mmHg 43%
    16:00 +21°C° 0 mm 5 m/s 746 mmHg 46%
    17:00 +21°C° 0 mm 4 m/s 746 mmHg 49%
    18:00 +20°C° 0 mm 3 m/s 746 mmHg 51%
    19:00 +18°C° 0 mm 3 m/s 746 mmHg 55%
    20:00 +17°C° 0 mm 3 m/s 747 mmHg 59%
    21:00 +15°C° 0 mm 2 m/s 747 mmHg 63%
    22:00 +15°C° 0 mm 2 m/s 747 mmHg 65%
    23:00 +14°C° 0 mm 2 m/s 748 mmHg 67%

    Après-demain, 23 Août, Jeudi

    Heure Température Précipitation Vent Pression Humidité
    00:00 +14°C° 0 mm 2 m/s 748 mmHg 69%
    01:00 +13°C° 0 mm 2 m/s 748 mmHg 71%
    02:00 +13°C° 0 mm 2 m/s 749 mmHg 73%
    03:00 +12°C° 0 mm 2 m/s 749 mmHg 75%
    04:00 +12°C° 0 mm 2 m/s 749 mmHg 76%
    05:00 +12°C° 0 mm 2 m/s 749 mmHg 77%
    06:00 +10°C° 0 mm 2 m/s 749 mmHg 78%
    07:00 +13°C° 0 mm 2 m/s 750 mmHg 72%
    08:00 +15°C° 0 mm 2 m/s 750 mmHg 66%
    09:00 +17°C° 0 mm 2 m/s 750 mmHg 60%
    10:00 +18°C° 0 mm 2 m/s 750 mmHg 55%
    11:00 +19°C° 0 mm 2 m/s 750 mmHg 50%
    12:00 +21°C° 0 mm 1 m/s 750 mmHg 45%
    13:00 +21°C° 0 mm 1 m/s 750 mmHg 43%
    14:00 +22°C° 0 mm 1 m/s 750 mmHg 41%
    15:00 +22°C° 0 mm 1 m/s 750 mmHg 39%
    16:00 +22°C° 0 mm 1 m/s 750 mmHg 41%
    17:00 +22°C° 0 mm 1 m/s 749 mmHg 43%
    18:00 +22°C° 0 mm 1 m/s 749 mmHg 45%
    19:00 +20°C° 0 mm 1 m/s 749 mmHg 48%
    20:00 +18°C° 0 mm 1 m/s 749 mmHg 51%
    21:00 +16°C° 0 mm 1 m/s 749 mmHg 55%
    22:00 +15°C° 0 mm 1 m/s 749 mmHg 56%
    23:00 +15°C° 0 mm 1 m/s 749 mmHg 58%

    24 Août, Vendredi

    Heure Température Précipitation Vent Pression Humidité
    00:00 +14°C° 0 mm 1 m/s 750 mmHg 59%
    01:00 +14°C° 0 mm 1 m/s 750 mmHg 61%
    02:00 +13°C° 0 mm 1 m/s 750 mmHg 62%
    03:00 +13°C° 0 mm 1 m/s 750 mmHg 64%
    04:00 +13°C° 0 mm 1 m/s 749 mmHg 66%
    05:00 +13°C° 0 mm 1 m/s 749 mmHg 67%
    06:00 +12°C° 0 mm 1 m/s 749 mmHg 69%
    07:00 +14°C° 0 mm 1 m/s 749 mmHg 64%
    08:00 +16°C° 0 mm 1 m/s 749 mmHg 59%
    09:00 +18°C° 0 mm 2 m/s 749 mmHg 54%
    10:00 +20°C° 0 mm 2 m/s 749 mmHg 50%
    11:00 +21°C° 0 mm 2 m/s 749 mmHg 46%
    12:00 +23°C° 0 mm 2 m/s 749 mmHg 41%
    13:00 +24°C° 0 mm 2 m/s 749 mmHg 40%
    14:00 +24°C° 0 mm 2 m/s 748 mmHg 38%
    15:00 +25°C° 0 mm 2 m/s 748 mmHg 37%
    16:00 +25°C° 0 mm 2 m/s 748 mmHg 40%
    17:00 +24°C° 0 mm 1 m/s 747 mmHg 43%
    18:00 +24°C° 0 mm 1 m/s 747 mmHg 46%
    19:00 +22°C° 0 mm 1 m/s 747 mmHg 49%
    20:00 +20°C° 0 mm 2 m/s 747 mmHg 51%
    21:00 +18°C° 0 mm 2 m/s 747 mmHg 54%
    22:00 +17°C° 0 mm 2 m/s 747 mmHg 55%
    23:00 +17°C° 0 mm 2 m/s 747 mmHg 57%

    25 Août, Samedi

    Heure Température Précipitation Vent Pression Humidité
    00:00 +16°C° 0 mm 2 m/s 747 mmHg 58%
    01:00 +16°C° 0 mm 2 m/s 747 mmHg 59%
    02:00 +15°C° 0 mm 2 m/s 747 mmHg 60%
    03:00 +15°C° 0 mm 2 m/s 747 mmHg 61%
    04:00 +14°C° 0 mm 2 m/s 747 mmHg 62%
    05:00 +14°C° 0 mm 2 m/s 747 mmHg 63%
    06:00 +14°C° 0 mm 2 m/s 747 mmHg 64%
    07:00 +16°C° 0 mm 2 m/s 747 mmHg 60%
    08:00 +18°C° 0 mm 3 m/s 747 mmHg 55%
    09:00 +19°C° 0 mm 3 m/s 747 mmHg 51%
    10:00 +21°C° 0 mm 3 m/s 747 mmHg 46%
    11:00 +22°C° 0 mm 4 m/s 747 mmHg 42%
    12:00 +25°C° 0 mm 4 m/s 747 mmHg 37%
    13:00 +25°C° 0 mm 4 m/s 747 mmHg 37%
    14:00 +26°C° 0 mm 4 m/s 746 mmHg 36%
    15:00 +26°C° 0 mm 4 m/s 746 mmHg 35%
    16:00 +25°C° 0 mm 3 m/s 746 mmHg 39%
    17:00 +25°C° 0 mm 3 m/s 746 mmHg 42%
    18:00 +24°C° 0 mm 2 m/s 746 mmHg 45%
    19:00 +23°C° 0 mm 2 m/s 746 mmHg 47%
    20:00 +20°C° 0 mm 2 m/s 746 mmHg 49%
    21:00 +18°C° 0 mm 2 m/s 746 mmHg 51%
    22:00 +18°C° 0 mm 2 m/s 746 mmHg 52%
    23:00 +17°C° 0 mm 2 m/s 746 mmHg 53%

    26 Août, Dimanche

    Heure Température Précipitation Vent Pression Humidité
    00:00 +17°C° 0 mm 3 m/s 746 mmHg 55%
    01:00 +16°C° 0 mm 3 m/s 746 mmHg 56%
    02:00 +16°C° 0 mm 3 m/s 746 mmHg 58%
    03:00 +16°C° 0 mm 3 m/s 745 mmHg 60%
    04:00 +14°C° 0 mm 3 m/s 745 mmHg 62%
    05:00 +14°C° 0 mm 3 m/s 746 mmHg 64%
    06:00 +14°C° 0 mm 3 m/s 746 mmHg 67%
    07:00 +17°C° 0 mm 3 m/s 746 mmHg 63%
    08:00 +19°C° 0 mm 4 m/s 746 mmHg 59%
    09:00 +21°C° 0 mm 4 m/s 746 mmHg 55%
    10:00 +23°C° 0 mm 4 m/s 746 mmHg 50%
    11:00 +25°C° 0 mm 5 m/s 746 mmHg 45%
    12:00 +27°C° 0 mm 5 m/s 746 mmHg 40%
    13:00 +27°C° 0 mm 5 m/s 746 mmHg 39%
    14:00 +28°C° 0 mm 5 m/s 745 mmHg 39%
    15:00 +28°C° 0 mm 5 m/s 745 mmHg 38%
    16:00 +27°C° 0 mm 4 m/s 745 mmHg 42%
    17:00 +27°C° 0 mm 4 m/s 745 mmHg 46%
    18:00 +26°C° 0 mm 3 m/s 745 mmHg 50%
    19:00 +25°C° 0 mm 3 m/s 745 mmHg 54%
    20:00 +22°C° 0 mm 3 m/s 745 mmHg 58%
    21:00 +20°C° 0 mm 3 m/s 745 mmHg 62%
    22:00 +20°C° 0 mm 3 m/s 745 mmHg 64%
    23:00 +20°C° 0 mm 3 m/s 745 mmHg 66%
    Voir plus